Aroma Park, IL

6:16 AM CDT on August 25, 2016 (GMT -0500)
Greater Kankakee

Weather History for KIKK - March, 2013

Change the Weather History Date:

Friday, March 29, 2013

  Actual Average Record
Temperature  
Mean Temperature 42 °F -  
Max Temperature 54 °F 56 °F 79 °F (1985)
Min Temperature 31 °F 35 °F 23 °F (1987)
Degree Days  
Heating Degree Days 22    
Moisture  
Dew Point 29 °F    
Average Humidity 64    
Maximum Humidity 94    
Minimum Humidity 36    
Precipitation  
Precipitation 0.00 in - - ()
Sea Level Pressure  
Sea Level Pressure 30.28 in    
Wind  
Wind Speed 1 mph (NNE)    
Max Wind Speed 8 mph    
Max Gust Speed -    
Visibility 9 miles    
Events      
Averages and records for this station are not official NWS values.
T = Trace of Precipitation, MM = Missing Value Source: NWS Daily Summary

Daily Weather History Graph

Daily Weather History Graph

Search for Another Location

Airport or City:

Trip Planner

Search our weather history database for the weather conditions in past years. The results will help you decide how hot, cold, wet, or windy it might be!

Date:

Astronomy

Mar. 29, 2013 Rise Set
Actual Time 6:39 AM CDT 7:13 PM CDT
Civil Twilight 6:11 AM CDT 7:41 PM CDT
Nautical Twilight 5:39 AM CDT 8:13 PM CDT
Astronomical Twilight 5:05 AM CDT 8:47 PM CDT
Moon 10:15 PM CDT (3/29) 7:46 AM CDT (3/29)
Length of Visible Light 13h 29m
Length of Day
12h 34m
Waning Gibbous, 93% of the Moon is Illuminated
Mar 29
Waning Gibbous
Apr 2
Last Quarter
Apr 10
New
Apr 18
First Quarter
Apr 25
Full

Hourly Weather History & Observations

Time (CDT) Temp. Windchill Dew Point Humidity Pressure Visibility Wind Dir Wind Speed Gust Speed Precip Events Conditions
12:15 AM 31.6 °F - 28.0 °F 87% 30.32 in 10.0 mi Calm Calm - N/A   Overcast
12:35 AM 32.4 °F - 29.1 °F 88% 30.32 in 10.0 mi Calm Calm - N/A   Overcast
12:55 AM 32.7 °F - 29.5 °F 88% 30.32 in 10.0 mi Calm Calm - N/A   Overcast
1:15 AM 33.1 °F - 30.7 °F 91% 30.31 in 10.0 mi Calm Calm - N/A   Overcast
1:35 AM 33.4 °F - 30.9 °F 90% 30.31 in 10.0 mi Calm Calm - N/A   Overcast
1:55 AM 33.4 °F - 31.1 °F 91% 30.32 in 10.0 mi Calm Calm - N/A   Overcast
2:15 AM 34.0 °F - 30.2 °F 86% 30.31 in 10.0 mi Calm Calm - N/A   Overcast
2:35 AM 34.2 °F - 31.1 °F 89% 30.31 in 10.0 mi Calm Calm - N/A   Overcast
2:55 AM 33.6 °F - 32.0 °F 94% 30.31 in 10.0 mi Calm Calm - N/A   Overcast
3:15 AM 34.2 °F - 32.0 °F 92% 30.30 in 10.0 mi Calm Calm - N/A   Overcast
3:35 AM 34.7 °F - 31.6 °F 89% 30.30 in 10.0 mi Calm Calm - N/A   Overcast
3:55 AM 33.8 °F 29.6 °F 32.0 °F 93% 30.30 in 7.0 mi SSW 4.6 mph - N/A   Overcast
4:15 AM 33.6 °F - 31.8 °F 93% 30.29 in 7.0 mi Calm Calm - N/A   Overcast
4:35 AM 33.4 °F - 31.5 °F 92% 30.29 in 10.0 mi Calm Calm - N/A   Overcast
4:55 AM 33.8 °F - 31.1 °F 90% 30.29 in 10.0 mi Calm Calm - N/A   Overcast
5:15 AM 32.2 °F - 30.7 °F 94% 30.29 in 10.0 mi Calm Calm - N/A   Overcast
5:35 AM 32.0 °F - 30.6 °F 94% 30.29 in 10.0 mi Calm Calm - N/A   Overcast
5:55 AM 32.0 °F 28.7 °F 30.6 °F 94% 30.29 in 7.0 mi NNE 3.5 mph - N/A   Mostly Cloudy
6:15 AM 32.7 °F 29.6 °F 30.9 °F 93% 30.30 in 7.0 mi NNE 3.5 mph - N/A   Overcast
6:35 AM 32.0 °F 28.7 °F 30.0 °F 92% 30.30 in 7.0 mi NNE 3.5 mph - N/A   Overcast
6:55 AM 32.0 °F 28.7 °F 29.8 °F 92% 30.30 in 7.0 mi NE 3.5 mph - N/A   Mostly Cloudy
7:15 AM 32.0 °F - 29.8 °F 92% 30.31 in 5.0 mi Calm Calm - N/A   Scattered Clouds
7:35 AM 32.7 °F - 30.9 °F 93% 30.32 in 5.0 mi Calm Calm - N/A   Scattered Clouds
7:55 AM 33.4 °F - 30.9 °F 90% 30.32 in 5.0 mi Calm Calm - N/A   Clear
8:15 AM 35.6 °F - 32.0 °F 87% 30.32 in 5.0 mi Calm Calm - N/A   Clear
8:35 AM 37.8 °F 35.3 °F 32.4 °F 81% 30.32 in 7.0 mi ENE 3.5 mph - N/A   Scattered Clouds
8:55 AM 40.5 °F 38.4 °F 31.1 °F 69% 30.32 in 10.0 mi East 3.5 mph - N/A   Mostly Cloudy
9:15 AM 42.1 °F - 30.2 °F 63% 30.33 in 10.0 mi Calm Calm - N/A   Scattered Clouds
9:35 AM 44.1 °F 41.5 °F 28.9 °F 55% 30.33 in 10.0 mi SE 4.6 mph - N/A   Scattered Clouds
9:55 AM 45.3 °F 43.0 °F 29.7 °F 54% 30.32 in 10.0 mi ESE 4.6 mph - N/A   Scattered Clouds
10:15 AM 46.4 °F 45.2 °F 30.6 °F 54% 30.32 in 10.0 mi South 3.5 mph - N/A   Scattered Clouds
10:35 AM 46.9 °F - 29.3 °F 50% 30.32 in 10.0 mi Calm Calm - N/A   Scattered Clouds
10:55 AM 47.3 °F - 28.8 °F 49% 30.32 in 10.0 mi East 3.5 mph - N/A   Scattered Clouds
11:15 AM 48.2 °F - 27.7 °F 45% 30.32 in 10.0 mi Calm Calm - N/A   Scattered Clouds
11:35 AM 50.0 °F - 28.4 °F 43% 30.32 in 10.0 mi NNW 3.5 mph - N/A   Scattered Clouds
11:55 AM 50.5 °F - 27.9 °F 42% 30.31 in 10.0 mi South 6.9 mph - N/A   Clear
12:15 PM 51.1 °F - 28.9 °F 43% 30.31 in 10.0 mi Calm Calm - N/A   Scattered Clouds
12:35 PM 50.9 °F - 28.4 °F 42% 30.30 in 10.0 mi SSE 4.6 mph - N/A   Scattered Clouds
12:55 PM 51.4 °F - 28.6 °F 41% 30.29 in 10.0 mi Calm Calm - N/A   Mostly Cloudy
1:15 PM 52.3 °F - 30.0 °F 42% 30.29 in 10.0 mi West 6.9 mph - N/A   Overcast
1:35 PM 51.3 °F - 28.8 °F 42% 30.28 in 10.0 mi Calm Calm - N/A   Overcast
1:55 PM 51.3 °F - 29.3 °F 43% 30.28 in 10.0 mi Calm Calm - N/A   Mostly Cloudy
2:15 PM 51.4 °F - 29.1 °F 42% 30.27 in 10.0 mi Calm Calm - N/A   Overcast
2:35 PM 50.9 °F - 28.4 °F 42% 30.26 in 10.0 mi Calm Calm - N/A   Overcast
2:55 PM 51.6 °F - 29.8 °F 43% 30.26 in 10.0 mi WSW 4.6 mph - N/A   Overcast
3:15 PM 51.8 °F - 28.4 °F 41% 30.25 in 10.0 mi West 4.6 mph - N/A   Overcast
3:35 PM 51.6 °F - 28.6 °F 41% 30.24 in 10.0 mi Calm Calm - N/A   Overcast
3:55 PM 53.2 °F - 28.0 °F 38% 30.24 in 10.0 mi Calm Calm - N/A   Mostly Cloudy
4:15 PM 52.0 °F - 28.6 °F 41% 30.23 in 10.0 mi NW 5.8 mph - N/A   Mostly Cloudy
4:35 PM 52.3 °F - 27.1 °F 38% 30.23 in 10.0 mi Calm Calm - N/A   Mostly Cloudy
4:55 PM 53.8 °F - 28.2 °F 37% 30.22 in 10.0 mi West 8.1 mph - N/A   Clear
5:15 PM 54.0 °F - 27.5 °F 36% 30.22 in 10.0 mi WNW 5.8 mph - N/A   Scattered Clouds
5:35 PM 53.1 °F - 27.1 °F 37% 30.22 in 10.0 mi West 8.1 mph - N/A   Scattered Clouds
5:55 PM 52.7 °F - 28.2 °F 39% 30.22 in 10.0 mi West 6.9 mph - N/A   Clear
6:15 PM 52.0 °F - 28.4 °F 40% 30.22 in 10.0 mi West 8.1 mph - N/A   Clear
6:35 PM 51.6 °F - 27.5 °F 39% 30.22 in 10.0 mi Calm Calm - N/A   Clear
6:55 PM 49.6 °F - 28.0 °F 43% 30.22 in 10.0 mi Calm Calm - N/A   Clear
7:15 PM 48.0 °F - 28.8 °F 47% 30.22 in 10.0 mi Calm Calm - N/A   Clear
7:35 PM 46.9 °F - 28.9 °F 50% 30.22 in 10.0 mi Calm Calm - N/A   Clear
7:55 PM 44.2 °F - 29.5 °F 56% 30.22 in 10.0 mi Calm Calm - N/A   Clear
8:15 PM 42.6 °F - 29.7 °F 60% 30.23 in 10.0 mi Calm Calm - N/A   Clear
8:35 PM 41.4 °F 36.8 °F 26.4 °F 55% 30.24 in 10.0 mi NE 6.9 mph - N/A   Clear
8:55 PM 40.1 °F 35.3 °F 24.6 °F 54% 30.24 in 10.0 mi NE 6.9 mph - N/A   Clear
9:15 PM 38.5 °F 33.4 °F 24.4 °F 57% 30.25 in 10.0 mi NE 6.9 mph - N/A   Clear
9:35 PM 37.6 °F 32.3 °F 23.5 °F 57% 30.26 in 10.0 mi NE 6.9 mph - N/A   Clear
9:55 PM 36.5 °F 32.7 °F 23.4 °F 59% 30.26 in 10.0 mi NE 4.6 mph - N/A   Clear
10:15 PM 36.0 °F 32.1 °F 23.0 °F 59% 30.26 in 10.0 mi NE 4.6 mph - N/A   Clear
10:35 PM 35.1 °F 32.2 °F 23.0 °F 61% 30.26 in 10.0 mi NE 3.5 mph - N/A   Clear
10:55 PM 35.1 °F 32.2 °F 23.0 °F 61% 30.25 in 10.0 mi NE 3.5 mph - N/A   Clear
11:15 PM 35.1 °F - 22.5 °F 60% 30.25 in 10.0 mi Calm Calm - N/A   Clear
11:35 PM 34.3 °F - 22.1 °F 61% 30.25 in 10.0 mi Calm Calm - N/A   Clear
11:55 PM 36.0 °F - 23.5 °F 61% 30.24 in 10.0 mi Calm Calm - N/A   Clear